Lobo

Go HERE for most recent data if this page is not up to date.

Jump to table bottom
Date/Time Temp deg F RH % 24 Hr Snow (in) Snow Depth (in) H2O (in)
05/17 01:00 35.0 100 "NAN" 55.9 0.00
05/17 00:00 37.2 86 "NAN" 56.0 0.00
05/16 23:00 37.5 80 "NAN" 56.0 0.00
05/16 22:00 35.6 94 "NAN" 56.0 0.00
05/16 21:00 35.7 100 "NAN" 56.0 0.00
05/16 20:00 37.6 99 "NAN" 56.0 0.00
05/16 19:00 37.2 80 "NAN" 56.0 0.07
05/16 18:00 41.3 91 "NAN" 56.1 0.03
05/16 17:00 46.9 57 "NAN" 56.0 0.00
05/16 16:00 44.8 54 "NAN" 56.0 0.03
05/16 15:00 51.5 56 "NAN" 56.2 0.00
05/16 14:00 50.7 43 "NAN" 56.3 0.00
05/16 13:00 47.1 64 "NAN" 56.6 0.00
05/16 12:00 48.0 63 "NAN" 57.1 0.00
05/16 11:00 43.4 64 "NAN" 57.4 0.00
05/16 10:00 40.4 84 "NAN" 57.7 0.00
05/16 09:00 41.1 71 "NAN" 57.8 0.00
05/16 08:00 38.8 73 "NAN" 57.8 0.00
05/16 07:00 37.7 78 "NAN" 57.6 0.07
05/16 06:00 38.5 89 "NAN" 57.5 0.06
05/16 05:00 38.9 77 "NAN" 57.8 0.02
05/16 04:00 42.2 72 "NAN" 57.7 0.00
05/16 03:00 44.0 66 "NAN" 57.5 0.00
05/16 02:00 45.2 52 "NAN" 57.8 0.00
05/16 01:00 46.0 38 "NAN" 58.1 0.00
05/16 00:00 45.6 42 "NAN" 57.9 0.00
.